This is the latest recevied weather packets stored in our database for station/object W4KUS-10. If no packets are shown the sender has not sent any weather packets the latest 10 day(s).
| Time | Temp. | Humidity | Pressure | Rain* | Wind** | Luminosity | Snow |
|---|---|---|---|---|---|---|---|
| 1778178941 | 22.22° C | 91% | 1008.3 hPa | 1.52 mm | - | - | - |
| 1778178641 | 22.22° C | 91% | 1008.5 hPa | 1.02 mm | - | - | - |
| 1778178341 | 22.22° C | 91% | 1009 hPa | 0.51 mm | - | - | - |
| 1778178041 | 22.22° C | 91% | 1009.2 hPa | 1.02 mm | - | - | - |
| 1778177741 | 22.22° C | 91% | 1009.3 hPa | 1.02 mm | - | - | - |
| 1778177441 | 22.22° C | 91% | 1009.2 hPa | 1.02 mm | - | - | - |
| 1778177141 | 22.22° C | 90% | 1009.2 hPa | 1.02 mm | - | - | - |
| 1778176841 | 22.78° C | 91% | 1009.1 hPa | 1.02 mm | - | - | - |
| 1778176541 | 22.78° C | 91% | 1009 hPa | 1.02 mm | - | - | - |
| 1778176241 | 22.78° C | 91% | 1009.2 hPa | 0.51 mm | - | - | - |
| 1778175941 | 22.22° C | 91% | 1009.2 hPa | 1.02 mm | - | - | - |
| 1778175641 | 22.22° C | 91% | 1009.4 hPa | 1.52 mm | - | - | - |
| 1778175341 | 22.22° C | 91% | 1009.5 hPa | 1.52 mm | - | - | - |
| 1778175041 | 22.22° C | 91% | 1009.7 hPa | 1.02 mm | - | - | - |
| 1778174741 | 22.22° C | 91% | 1009.8 hPa | 0.51 mm | - | - | - |
| 1778174441 | 22.22° C | 91% | 1009.9 hPa | 0 mm | - | - | - |
| 1778174141 | 22.22° C | 91% | 1010.1 hPa | 0.76 mm | - | - | - |
| 1778173841 | 22.22° C | 91% | 1010.3 hPa | 1.02 mm | - | - | - |
| 1778173541 | 22.22° C | 91% | 1010.4 hPa | 1.02 mm | - | - | - |
| 1778173241 | 22.22° C | 90% | 1010.6 hPa | 0 mm | - | - | - |
| 1778172941 | 22.22° C | 90% | 1010.9 hPa | 0 mm | - | - | - |
| 1778172641 | 22.22° C | 90% | 1010.6 hPa | 0 mm | - | - | - |
| 1778172341 | 22.22° C | 89% | 1010.7 hPa | 0 mm | - | - | - |
| 1778172041 | 22.22° C | 89% | 1010.9 hPa | 0 mm | - | - | - |
| 1778171741 | 22.22° C | 88% | 1010.7 hPa | 0 mm | - | - | - |
* Rain latest hour (hover to see other rain measurements)
** Current wind speed in m/s (hover to see current wind gust speed)